Theta_e
354 354 354 353 352 353 353 350 349 351 351 350 350 349 349 350 351 352 352 352 353 353 353 354 354 355 356 354 352 353 354 354 355 355 352 351 348 347 350 353 353 353 352 350 351 353 354 354 353 354 355 355 354 354 354 354 353 352 353 353 353 354 355 355 353 350 346 346 348 351 354 354 351 349 349 349 348 347 346 346 347 347 346 345 345
354 354 353 352 351 351 352 352 351 351 351 350 349 349 349 349 349 351 351 351 352 353 353 354 354 354 355 354 352 352 353 353 353 353 352 351 351 349 348 349 350 351 350 349 350 351 352 353 353 354 356 356 355 355 355 354 352 351 351 352 353 354 354 354 353 352 349 348 349 353 354 353 353 352 350 349 348 348 347 347 347 348 348 346 346
352 354 352 351 352 352 350 351 351 351 351 349 348 348 347 348 348 349 350 351 352 352 352 353 354 354 354 353 352 353 354 353 353 353 352 352 352 352 351 350 349 350 351 351 350 349 350 350 351 354 355 355 355 355 354 354 353 352 352 351 352 352 352 353 353 353 353 352 353 355 355 353 352 351 350 349 349 348 348 348 348 349 348 348 348
351 352 350 349 352 352 351 350 350 350 350 348 347 346 346 346 346 347 348 349 349 350 351 353 352 353 354 353 353 354 354 353 353 353 353 354 354 354 354 355 354 354 353 353 352 352 352 351 352 354 355 354 354 355 355 355 354 353 352 352 351 351 352 353 353 353 353 353 352 354 355 354 354 353 351 350 349 348 347 347 347 348 349 350 351
349 350 350 350 352 353 352 351 351 351 350 349 348 346 346 346 346 346 346 346 347 347 348 350 352 353 353 353 353 353 353 353 353 354 355 355 355 354 353 353 354 354 353 352 352 352 353 352 352 353 354 353 352 353 355 355 354 353 353 352 351 351 351 352 352 352 352 351 349 350 352 353 354 353 353 351 349 349 349 348 348 348 350 351 351
350 349 349 352 353 353 351 351 352 352 351 351 349 348 346 346 346 345 345 345 345 346 346 347 349 351 352 352 352 352 353 353 353 354 355 355 355 354 350 349 350 351 352 353 352 353 354 354 354 354 353 351 350 351 353 354 354 355 355 353 352 352 352 352 352 352 352 351 351 350 350 350 349 350 352 354 353 349 347 348 349 349 350 350 350
353 351 350 352 355 355 354 354 354 353 353 352 350 349 349 348 346 345 345 344 344 345 346 345 345 347 349 350 351 352 352 352 353 354 355 355 355 354 352 351 352 351 352 353 353 354 354 354 354 354 353 353 352 352 352 353 353 354 354 353 352 353 354 353 353 352 352 351 350 350 349 349 349 350 350 352 353 351 348 349 349 348 348 348 348
353 351 350 352 355 357 356 355 352 350 351 351 350 350 350 349 348 346 344 345 344 345 346 345 345 345 345 347 349 351 351 350 351 352 354 354 354 353 351 351 352 352 353 352 352 353 353 353 354 354 353 353 352 352 352 351 351 352 351 348 348 352 354 353 352 352 351 350 349 348 346 347 349 350 350 350 351 352 350 350 351 350 348 346 346
353 352 352 352 353 354 353 350 347 346 347 348 350 350 350 350 350 348 346 345 344 344 346 346 346 345 344 344 346 348 351 351 350 349 351 352 352 351 350 351 351 350 350 349 349 353 354 353 353 353 353 353 353 352 351 351 351 352 351 348 347 349 352 351 350 349 348 348 347 347 347 347 348 349 350 349 350 350 348 348 350 350 348 346 345
354 352 352 351 350 349 348 346 347 347 346 346 349 350 348 349 350 350 349 347 345 344 345 346 347 346 345 344 344 346 349 351 350 349 350 352 351 350 350 350 349 350 352 351 351 353 353 352 351 351 351 352 353 353 351 351 352 352 352 351 349 349 349 348 347 345 345 345 345 346 347 347 347 349 348 347 348 350 349 348 349 349 348 347 346
354 351 350 350 349 349 350 350 350 350 348 347 348 349 348 348 350 351 351 350 349 348 346 345 346 347 346 346 344 344 345 346 348 350 352 353 352 350 349 348 348 350 352 352 351 350 350 350 349 347 346 347 350 351 351 351 352 352 352 351 351 351 351 350 349 347 346 346 345 345 345 346 346 347 347 347 348 349 349 348 350 350 350 349 347
354 351 350 349 350 352 352 352 353 353 352 349 348 348 349 349 350 351 350 350 350 350 348 347 346 346 347 346 345 345 346 346 347 349 350 352 351 351 350 349 348 348 349 349 349 349 349 350 349 348 346 344 346 349 350 350 349 349 350 351 351 351 351 351 351 350 349 349 348 347 346 346 345 345 345 347 347 348 348 349 350 351 350 350 350
353 352 351 350 351 352 351 351 352 353 354 352 351 350 348 349 350 351 350 348 349 350 349 348 347 346 346 346 347 347 347 348 349 349 349 350 350 350 350 350 350 350 351 350 350 350 350 349 349 348 347 346 347 348 349 348 345 344 345 348 348 349 349 350 350 351 351 351 350 349 349 348 347 346 346 347 347 348 349 349 350 349 349 351 351
354 355 354 352 352 352 351 351 351 351 352 353 352 351 350 349 350 350 350 349 348 349 349 349 349 348 348 348 349 349 348 349 349 348 348 348 348 348 349 351 352 352 351 351 350 350 350 350 349 348 347 348 348 348 348 347 345 344 345 347 347 347 348 349 350 351 352 351 351 350 349 348 348 348 348 348 348 349 350 350 350 348 349 351 351
352 353 354 353 353 352 352 352 351 351 351 351 351 351 350 350 350 350 350 348 348 350 351 352 351 351 351 351 350 349 348 348 348 348 347 347 347 348 349 350 351 350 350 349 349 349 350 350 350 349 349 350 349 348 347 347 347 347 347 347 346 346 346 348 350 350 350 350 350 350 349 349 349 349 349 349 349 350 350 350 350 348 348 350 350
352 352 353 353 353 352 352 351 350 350 349 349 350 350 349 349 349 349 348 349 350 351 352 353 352 351 352 350 349 348 348 348 348 348 348 348 347 348 349 349 350 350 349 349 350 350 349 349 350 349 348 348 348 347 346 347 348 349 348 348 347 347 346 348 349 349 349 349 349 350 350 349 349 350 350 349 350 350 350 350 350 348 348 350 350
352 352 352 352 351 351 351 350 351 350 349 349 349 349 349 350 349 348 348 350 351 352 352 352 351 350 350 349 348 348 349 349 349 348 347 347 347 347 348 348 349 349 348 348 349 350 349 349 349 348 347 347 347 347 347 347 347 346 346 345 345 345 346 346 347 349 349 350 350 350 349 349 349 349 350 350 350 350 350 350 349 349 349 350 351
349 349 349 349 349 349 348 349 349 349 349 349 349 349 349 350 350 349 349 350 350 350 350 351 350 349 349 348 348 349 349 348 348 347 347 347 347 347 347 347 348 349 348 347 347 348 348 348 348 348 347 347 346 345 344 343 342 342 342 342 342 343 343 344 346 348 349 349 349 350 349 349 349 348 349 349 349 349 349 349 349 349 350 350 350
345 345 346 346 346 345 345 346 347 346 347 347 347 347 347 347 347 347 348 348 348 348 348 348 348 349 348 348 348 347 346 344 343 344 344 344 345 345 346 346 346 347 347 347 347 345 345 345 346 345 344 342 341 340 339 339 338 338 338 337 338 338 339 340 342 343 344 345 345 347 347 347 348 348 348 349 349 349 348 348 349 349 349 349 349
343 343 344 344 343 343 343 343 343 343 344 345 344 344 345 345 344 344 345 344 344 345 346 346 346 347 346 346 344 341 338 337 338 338 338 338 340 340 341 343 344 344 344 344 344 342 343 343 341 339 337 336 335 335 335 335 336 335 333 330 326 326 328 330 332 334 336 337 339 340 341 342 344 345 346 347 349 348 347 347 347 348 347 346 346
342 342 343 344 343 342 342 343 343 342 343 343 342 342 343 343 342 342 342 341 340 341 343 343 344 344 344 343 342 340 340 340 340 339 339 339 340 340 340 341 342 342 341 341 341 340 338 336 335 334 332 329 325 322 321 323 326 328 326 320 316 316 320 324 327 331 334 337 338 339 339 340 341 342 343 345 346 346 345 344 344 345 345 343 341
340 340 341 341 341 342 341 341 342 342 342 342 341 340 341 341 341 341 341 340 340 341 342 342 342 342 342 342 341 341 341 340 339 339 339 339 339 338 339 338 338 338 337 337 337 336 334 334 333 330 324 319 316 313 313 316 319 321 321 319 318 321 325 329 332 334 337 339 339 339 339 339 340 340 341 342 343 342 341 341 340 341 341 339 337
337 338 338 338 339 339 339 339 339 339 339 340 340 340 341 341 341 342 341 341 341 341 341 341 340 339 339 338 338 337 336 336 336 335 336 336 335 335 335 335 335 335 334 334 335 334 332 330 326 320 317 319 321 321 322 323 325 327 328 329 329 329 331 334 336 336 337 338 337 337 337 337 337 338 337 338 338 337 337 337 336 337 337 336 335
333 334 335 335 337 337 337 337 337 336 336 336 336 337 337 338 338 338 338 338 338 338 337 336 334 334 333 332 332 332 331 330 329 328 328 328 328 329 330 330 331 330 330 329 328 326 322 318 316 318 324 329 330 328 329 330 331 332 333 334 334 332 331 334 336 336 335 335 334 334 334 333 333 334 333 333 333 333 332 332 332 332 332 332 332
326 327 327 328 330 331 333 334 334 334 334 333 333 333 333 333 334 335 335 335 333 333 333 331 329 329 328 326 323 320 317 315 314 313 313 313 314 316 318 319 319 318 316 315 314 315 316 318 323 327 331 332 332 331 332 333 333 334 334 335 334 332 331 332 334 334 333 332 333 332 332 331 332 332 331 330 329 329 329 329 329 329 328 328 328
323 323 322 323 323 324 327 330 331 331 331 331 332 333 332 333 334 334 334 333 332 331 331 329 327 326 325 325 321 313 308 308 307 306 307 306 307 308 309 309 309 308 309 312 316 319 322 325 329 331 330 331 332 333 332 332 333 333 333 333 332 330 329 331 333 333 332 331 331 332 332 331 331 331 330 329 327 327 327 326 325 326 325 326 327
325 324 324 323 322 321 321 323 325 328 329 328 329 330 330 331 332 333 333 332 331 329 326 326 327 327 327 327 323 313 306 308 308 307 307 307 307 307 307 307 308 309 312 317 322 325 326 328 330 330 330 330 332 332 332 332 332 331 331 331 330 329 329 331 333 332 331 330 330 331 331 331 331 330 329 327 325 325 324 323 322 323 324 324 326
327 326 326 325 324 322 320 317 316 318 320 320 319 318 317 319 322 326 328 326 323 321 319 320 324 325 324 322 319 311 308 310 310 309 310 309 309 309 309 309 311 313 317 321 324 326 329 329 327 327 328 329 330 330 330 330 330 329 329 330 330 329 329 330 331 330 330 330 329 329 329 329 328 326 325 323 323 323 322 321 320 320 320 322 323
327 326 326 326 325 324 323 321 318 315 313 312 311 310 309 308 310 312 314 313 313 316 316 315 314 314 313 312 312 310 310 312 312 311 312 311 310 311 310 311 315 321 325 326 327 328 329 328 327 327 327 327 327 327 327 327 327 327 327 328 329 328 328 328 329 329 328 329 328 327 327 326 324 323 322 322 323 322 320 317 316 315 316 318 320
328 327 326 325 325 326 326 325 323 320 314 311 311 310 310 310 310 309 309 308 309 312 313 311 309 310 310 310 311 312 312 313 313 313 313 313 312 312 311 312 316 324 328 328 328 328 328 327 327 327 326 326 326 326 325 326 326 325 325 325 326 326 326 326 325 325 325 325 325 324 324 323 323 322 323 323 323 321 318 316 315 314 313 313 314
330 328 324 321 321 324 325 323 322 320 315 312 312 313 313 313 313 312 312 312 311 312 312 311 311 312 312 312 313 313 313 314 314 314 314 315 314 314 314 312 314 319 323 325 325 326 326 326 325 325 325 325 324 325 324 324 324 324 324 324 324 324 324 323 323 323 323 322 322 322 322 321 322 322 322 322 322 321 320 319 317 316 314 314 314
330 330 328 323 323 325 324 323 323 323 321 320 320 320 322 322 319 316 314 314 313 313 313 313 313 313 313 313 314 314 314 315 315 315 315 315 315 316 316 315 314 315 318 321 323 324 325 324 324 323 324 323 323 323 323 323 323 323 323 323 323 322 322 322 322 323 322 322 322 322 322 321 322 321 321 321 320 319 319 319 318 317 317 316 316
326 328 329 328 328 328 326 325 326 326 327 328 327 326 327 327 325 322 319 318 317 316 314 313 313 314 314 313 314 314 315 315 315 315 315 315 315 316 318 318 318 317 316 319 323 324 323 323 322 322 321 321 322 322 321 321 321 321 322 322 322 321 321 321 321 322 321 321 321 321 321 321 321 321 320 320 319 319 318 318 318 317 317 316 315
322 323 323 323 325 326 326 326 327 326 326 328 328 327 327 327 326 325 325 324 324 323 321 317 314 313 314 314 315 314 314 315 315 315 314 314 315 318 320 321 321 319 317 318 320 322 322 322 322 321 320 320 320 320 319 319 319 319 320 319 319 319 319 319 318 318 317 318 318 319 319 319 320 320 319 319 318 318 318 318 318 317 317 316 315
323 322 322 322 324 326 326 326 325 325 327 327 325 326 327 326 325 326 326 325 326 326 325 323 320 316 315 314 314 314 314 314 314 314 315 314 315 319 322 322 322 321 319 318 318 319 318 319 318 318 318 318 317 317 317 317 316 316 315 314 314 315 315 314 313 312 312 314 316 316 316 316 317 317 317 317 317 317 316 317 316 316 316 316 315
324 325 325 324 325 325 325 325 325 325 325 325 324 325 326 326 325 326 326 325 325 326 325 325 324 322 320 317 315 314 314 314 315 316 316 316 316 319 321 321 320 320 319 318 318 317 316 315 315 314 314 314 313 313 314 314 313 313 312 311 312 313 313 312 311 310 310 311 312 312 312 311 311 311 312 312 312 313 313 313 313 314 314 313 313
317 323 326 326 325 325 326 326 325 323 322 320 321 323 324 323 323 324 324 324 324 325 325 324 324 323 323 321 318 315 314 315 316 318 318 318 318 319 319 319 319 319 318 317 317 317 316 315 314 313 314 314 313 312 312 312 312 312 311 311 311 312 311 311 311 310 310 309 310 310 309 309 309 309 308 308 308 308 308 309 309 309 309 309 309
314 318 322 323 322 323 324 323 322 322 321 319 319 321 322 322 322 322 322 322 322 323 324 323 322 323 323 323 322 320 318 317 319 320 319 319 319 319 319 318 318 317 317 316 316 316 315 315 314 313 314 314 313 312 312 311 311 311 311 311 311 311 311 310 310 310 309 309 309 308 308 308 308 308 308 307 307 307 307 306 306 306 306 306 306
320 318 319 319 318 318 318 318 319 321 322 321 320 321 321 321 321 320 320 321 321 322 322 322 322 323 324 323 322 322 321 320 320 320 320 319 319 319 318 318 317 317 316 316 315 315 314 314 313 313 313 312 312 311 311 311 310 310 310 310 311 310 310 310 309 309 309 308 308 308 307 307 307 306 306 306 305 305 305 305 305 305 305 306 306
320 320 321 320 318 317 317 317 319 320 321 320 320 320 320 321 322 321 321 321 321 321 321 321 321 322 323 321 321 321 321 321 321 320 319 319 319 319 318 317 317 316 316 315 315 315 314 314 313 312 312 311 311 310 310 310 310 309 309 309 309 309 309 309 308 308 307 307 307 307 306 306 305 305 304 304 304 304 304 304 304 305 305 305 306
318 320 321 320 319 319 317 317 318 319 319 319 320 321 322 322 322 321 321 321 321 322 321 321 320 321 321 320 320 320 319 320 320 319 319 319 319 318 317 317 316 316 316 315 314 314 313 313 312 311 311 311 310 310 309 309 309 308 308 308 308 308 308 307 307 307 306 306 305 305 304 304 304 303 303 302 303 303 304 304 304 304 305 305 305
317 319 319 318 318 319 317 317 319 319 319 320 320 320 321 321 321 321 321 320 320 320 320 319 320 319 319 319 319 318 318 318 319 318 318 318 318 318 317 316 316 315 314 314 313 313 312 311 311 311 310 310 309 309 309 308 308 307 307 307 307 307 306 306 306 306 305 305 304 303 303 302 302 301 300 300 301 302 302 303 303 304 304 305 305
316 317 318 317 317 317 317 318 319 319 319 320 320 320 320 320 320 319 319 319 319 319 318 318 318 318 318 318 318 317 317 317 318 318 317 317 317 317 316 315 315 314 313 312 312 311 311 311 310 310 309 309 308 308 307 307 307 306 306 306 306 305 305 305 304 304 303 303 302 301 301 300 299 299 299 299 300 300 301 302 303 303 304 304 304
315 317 318 317 317 317 317 317 317 317 317 318 317 317 317 318 317 317 317 317 317 317 316 317 317 317 318 318 318 317 317 317 317 317 317 316 316 315 315 314 314 313 312 312 311 311 310 310 309 309 308 308 308 307 307 306 306 306 305 305 305 304 304 303 302 302 301 300 299 299 298 298 297 297 298 298 299 299 300 300 302 302 303 302 303
317 317 316 316 316 317 317 317 317 317 316 315 315 315 315 315 315 315 315 316 316 316 316 316 316 316 317 317 317 317 318 317 317 317 316 316 315 314 314 314 313 312 312 311 310 310 310 309 308 308 308 307 307 307 306 306 305 305 304 304 304 303 303 302 301 301 300 299 299 298 297 297 296 296 297 298 298 298 299 300 300 301 301 302 302
317 315 315 315 315 315 315 316 316 316 315 314 314 314 314 314 314 315 315 316 315 315 315 315 315 315 316 316 316 316 316 316 316 316 315 314 314 314 313 313 312 311 311 310 310 309 309 308 308 307 307 307 306 306 305 305 304 304 303 303 303 302 302 302 301 301 300 299 298 298 297 296 296 296 297 297 298 298 298 299 300 300 301 301 301
314 313 314 314 314 314 314 314 314 314 314 313 313 313 313 313 313 314 314 315 314 314 314 314 315 315 315 315 315 315 315 314 314 314 314 313 313 313 312 312 311 311 310 310 309 308 308 308 307 307 306 306 306 305 304 303 303 302 302 302 301 301 301 300 300 299 299 298 298 297 296 295 295 295 296 296 297 297 298 299 299 300 300 301 301
313 314 314 313 313 313 313 313 313 314 314 313 313 313 313 313 313 313 313 313 314 314 314 314 314 314 314 314 314 314 313 313 313 313 313 312 312 312 311 311 311 310 310 309 308 307 307 306 306 306 305 305 304 304 303 302 301 301 301 300 300 300 299 299 299 298 297 297 296 295 294 294 295 295 296 296 297 297 298 299 299 300 300 300 301
313 313 313 312 312 312 312 312 313 313 312 312 312 312 312 312 312 312 312 312 312 312 312 312 312 313 312 312 312 312 312 312 312 312 312 311 311 311 311 310 309 309 308 308 307 307 306 305 305 305 304 304 303 302 301 300 300 300 299 299 299 299 298 298 298 297 296 295 295 294 294 294 295 295 296 297 297 297 298 298 299 299 300 300 301
312 312 312 312 312 311 311 312 312 311 311 312 312 311 311 311 311 311 311 311 311 311 311 311 311 311 311 311 311 311 311 310 310 310 310 310 309 309 309 308 308 307 307 306 306 306 305 304 304 304 303 302 301 301 300 299 299 299 298 298 298 298 297 296 296 295 295 295 294 294 294 294 295 296 296 297 297 297 298 298 299 299 300 300 301
312 311 311 311 311 311 311 311 311 311 311 311 311 311 311 311 310 310 310 310 310 310 310 310 310 309 309 309 309 309 309 309 308 308 308 308 308 308 307 307 306 306 306 305 305 305 304 303 303 302 302 301 300 299 299 299 298 298 298 297 296 296 296 295 295 295 295 295 294 294 294 295 296 296 297 297 297 297 298 298 299 299 300 300 300
Wind_Speed
18 18 17 17 16 16 16 17 17 17 16 15 15 15 14 14 14 14 14 14 13 14 14 14 14 13 13 12 10 11 13 13 12 13 13 12 12 12 12 14 15 14 13 12 12 12 13 14 14 13 14 16 16 15 14 13 13 14 15 16 16 16 15 15 18 20 16 12 13 11 10 13 11 9 9 10 10 11 12 12 13 15 16 16 17
20 19 17 16 15 15 15 15 16 16 16 15 16 15 15 14 14 14 15 14 14 15 15 14 14 14 14 14 12 11 14 15 15 15 14 14 13 13 13 14 15 16 16 14 13 13 14 15 15 15 15 16 16 16 14 13 13 14 15 15 16 15 16 17 18 21 19 16 14 13 11 12 11 10 9 10 10 11 13 14 15 15 14 15 18
21 22 19 16 16 17 16 15 15 15 15 15 15 15 15 15 15 15 14 14 14 15 14 15 15 14 15 16 13 12 14 15 14 15 15 15 15 14 15 15 15 15 16 15 14 14 14 15 15 15 15 16 16 15 14 14 14 15 14 15 17 17 17 17 17 18 19 18 16 14 13 12 12 11 10 11 12 13 14 14 14 13 14 15 17
18 20 19 17 17 20 19 18 18 18 17 17 16 16 16 15 15 15 15 14 15 14 14 15 16 15 15 15 14 15 16 15 14 15 15 15 16 16 16 15 14 15 15 15 15 13 14 15 14 14 15 16 16 16 14 15 16 15 14 15 16 16 16 17 16 15 17 18 16 14 14 14 14 14 13 14 15 15 16 16 16 16 16 16 16
16 17 17 17 18 20 20 18 18 20 20 19 20 20 19 16 16 16 15 16 16 15 15 15 15 15 15 15 14 15 15 15 15 15 15 16 16 16 15 14 14 15 14 15 16 15 15 16 15 15 17 18 17 15 15 15 14 14 15 16 17 18 18 17 16 16 17 18 18 15 14 15 16 16 15 17 18 18 18 18 18 18 17 16 17
12 14 17 19 18 17 16 14 16 19 20 19 20 21 20 18 18 17 16 17 17 16 16 16 15 16 15 15 15 14 15 16 16 16 17 17 17 17 16 15 15 15 14 14 16 16 16 16 16 16 18 18 17 16 16 15 13 14 16 17 18 19 19 18 16 17 18 19 19 18 17 17 17 16 15 18 22 22 21 20 19 17 18 19 20
11 12 15 18 18 16 13 12 15 18 19 19 19 19 20 20 21 20 18 18 18 16 16 17 16 16 16 16 15 15 18 18 17 17 19 19 18 18 16 15 15 15 15 15 15 15 16 17 17 18 18 17 17 16 16 15 15 17 18 17 17 18 19 19 18 18 18 18 18 19 19 18 17 16 17 19 22 21 20 20 20 18 18 20 22
11 12 14 16 16 16 15 15 17 18 19 20 19 18 20 20 20 21 21 20 19 17 15 17 16 15 15 15 16 19 22 20 17 18 19 19 18 17 16 16 16 17 17 17 17 16 17 18 18 19 20 19 18 17 17 17 18 19 18 17 16 17 18 20 20 20 20 20 19 19 18 18 17 18 20 21 20 18 17 18 20 21 20 21 22
11 12 13 15 15 16 18 18 18 17 19 21 21 20 20 20 19 21 22 21 21 20 18 17 18 17 16 16 17 20 20 18 17 17 18 19 18 17 16 16 16 18 19 19 18 17 18 18 16 16 19 19 18 19 18 17 18 19 19 18 18 18 20 23 24 25 25 24 24 22 21 22 20 20 21 21 21 20 19 19 19 20 21 22 22
11 12 12 13 15 17 19 19 17 16 18 19 20 20 20 21 21 22 21 20 20 21 20 19 19 20 21 20 20 19 17 17 18 17 17 18 19 18 18 17 17 18 19 19 19 19 20 19 17 17 19 19 19 20 20 19 19 20 20 19 20 20 23 25 25 26 26 26 26 25 26 26 25 23 24 23 22 21 22 22 21 20 22 23 23
9 11 11 12 14 15 18 18 17 17 18 18 18 18 19 21 22 22 21 20 18 19 21 21 20 20 21 21 21 19 17 17 17 17 17 18 18 19 19 19 19 18 19 19 20 20 20 19 18 16 16 18 20 20 20 19 19 19 19 18 19 20 23 24 24 24 25 25 26 26 27 28 27 27 27 26 25 24 24 24 23 23 23 24 24
9 10 12 13 13 14 16 18 18 17 18 18 19 19 18 19 20 21 22 21 20 20 21 21 20 20 20 20 20 19 17 14 14 15 16 16 17 17 18 19 19 19 21 21 21 20 19 16 14 14 16 20 21 21 20 19 18 18 18 18 19 20 22 23 24 24 24 25 26 27 27 28 28 27 27 26 26 26 25 24 24 25 25 24 24
9 10 13 14 14 15 17 19 19 18 18 18 19 19 19 20 20 21 21 21 22 22 22 21 19 20 21 20 18 18 17 15 14 13 14 14 15 16 16 17 18 19 20 20 20 21 20 16 15 16 18 20 20 20 20 19 18 19 20 20 21 21 22 23 23 23 23 24 26 27 27 27 28 28 26 25 26 26 26 26 27 26 25 24 24
11 11 13 15 16 16 16 17 18 18 18 18 18 20 21 21 21 20 21 21 21 22 23 21 19 19 19 19 18 18 17 16 16 15 14 14 15 16 16 16 16 17 17 17 17 18 19 17 16 16 16 17 19 20 20 19 19 20 20 21 22 22 23 24 23 23 23 24 25 27 27 26 28 28 26 25 26 26 26 27 26 26 26 26 25
13 13 13 14 15 14 13 13 15 17 17 17 18 19 20 21 20 20 21 20 19 21 23 22 18 15 13 14 16 16 15 15 15 15 15 15 15 16 16 16 16 17 16 14 14 15 15 15 14 13 13 14 15 16 17 18 18 18 19 21 22 23 24 25 24 24 25 25 26 27 27 25 26 27 26 25 26 27 28 28 27 27 27 27 26
13 13 11 10 9 9 9 10 12 15 16 17 17 17 18 20 21 21 20 18 17 20 20 19 16 12 9 11 14 15 14 15 15 15 15 15 14 14 15 15 16 15 12 9 9 11 13 13 13 13 13 14 15 16 18 18 18 19 21 22 23 24 25 25 24 24 26 26 26 26 26 25 25 26 25 25 26 27 28 29 30 30 30 30 29
9 8 7 6 5 6 6 5 6 8 10 12 14 14 15 16 16 17 19 19 18 18 18 16 14 13 12 14 15 14 13 14 15 14 14 13 13 14 14 15 15 15 13 11 9 8 8 10 11 12 13 15 15 16 17 18 19 20 21 22 22 23 24 24 24 25 26 27 27 26 26 26 26 27 27 26 26 28 28 30 31 32 31 31 30
5 4 4 4 4 4 4 3 4 5 5 7 10 12 13 13 11 11 15 19 20 20 19 17 15 15 15 15 15 14 12 12 12 11 11 11 10 11 11 12 13 14 14 14 12 8 6 8 10 11 12 12 13 14 15 17 19 19 19 19 19 20 21 22 23 24 25 26 26 25 26 27 27 28 29 28 27 27 29 31 32 31 32 34 31
4 4 4 4 4 4 4 4 5 4 3 4 4 5 6 8 8 8 10 13 14 14 14 13 12 12 12 11 11 10 8 7 6 6 7 8 7 6 7 8 10 12 12 12 12 11 10 10 10 10 10 10 11 12 13 14 15 15 16 16 16 16 18 19 20 21 22 22 23 24 25 25 25 26 27 26 26 26 26 26 25 26 29 30 29
10 9 9 9 9 9 8 8 8 8 8 7 4 3 4 6 5 6 6 5 5 5 5 5 5 6 7 6 5 5 4 3 4 5 6 7 6 6 5 5 7 9 9 10 10 9 9 9 7 7 7 7 8 9 11 11 12 13 14 14 14 15 15 16 16 18 18 18 19 19 20 21 21 23 25 25 25 24 22 20 20 22 22 20 19
13 13 13 13 13 13 12 12 11 10 9 8 6 6 6 6 6 5 5 6 6 5 4 3 3 3 3 4 4 4 4 5 6 6 7 7 6 5 4 3 5 6 5 6 6 5 5 4 3 4 5 6 7 8 9 10 11 12 13 14 14 14 15 15 14 14 13 13 14 15 16 16 16 20 22 22 21 20 19 18 19 21 21 16 12
17 16 15 14 14 13 12 12 11 10 9 8 8 9 8 8 7 7 6 6 5 4 3 2 2 1 1 2 3 4 5 5 5 5 5 5 4 3 2 1 2 2 2 3 3 2 2 2 3 4 6 8 8 9 8 9 9 10 11 12 11 12 13 13 12 11 11 11 13 13 13 12 12 12 13 14 15 14 14 15 15 15 16 13 9
15 16 16 16 16 15 14 12 12 12 11 9 9 10 9 8 8 7 6 5 5 4 4 4 4 3 3 2 2 2 1 2 2 2 1 2 3 3 3 2 2 3 3 3 3 4 4 5 6 6 7 8 9 8 9 11 12 13 13 11 10 11 13 12 12 11 11 12 12 12 12 11 11 10 8 8 9 9 10 10 10 10 11 10 9
14 14 15 15 15 14 14 13 15 16 15 14 13 13 11 10 11 10 9 8 8 8 9 9 9 8 7 6 4 4 3 3 4 4 4 5 5 5 5 5 4 4 4 4 4 4 6 7 6 6 8 10 12 12 13 15 15 15 13 11 10 13 15 13 11 11 12 13 13 12 12 12 12 11 11 10 10 10 9 8 8 8 8 8 8
15 14 13 13 12 12 12 13 13 14 14 14 14 14 13 13 13 12 11 10 9 10 10 11 10 9 8 7 6 5 6 6 6 6 6 6 5 5 4 4 3 3 4 5 5 6 6 6 7 7 8 9 10 11 13 14 14 11 9 9 10 13 13 10 9 10 12 14 14 12 12 12 12 11 12 11 10 9 9 8 7 6 6 6 5
16 14 13 13 11 11 12 12 12 11 11 11 11 11 10 11 11 10 9 10 11 10 9 10 10 9 8 8 8 8 8 8 8 8 8 7 7 6 6 6 7 7 8 9 8 7 6 7 7 7 7 8 8 8 9 11 11 8 6 7 10 13 13 9 8 10 11 13 13 11 11 11 11 11 11 10 9 8 8 8 8 7 6 6 6
15 14 13 12 11 10 10 10 9 9 9 9 9 8 7 6 7 8 8 7 6 5 6 7 8 7 7 6 5 7 8 8 9 9 10 10 11 10 10 11 11 10 10 10 8 8 9 8 7 7 7 9 10 8 7 7 8 7 7 7 10 14 14 11 8 9 10 10 10 9 8 8 8 9 9 8 8 8 9 9 9 9 9 9 10
11 11 11 11 11 11 10 9 8 8 7 6 5 5 5 5 5 6 5 3 2 3 5 6 6 6 5 3 2 5 7 8 9 10 10 11 11 11 12 12 11 11 11 11 10 11 12 11 9 8 8 8 7 5 3 4 4 5 6 7 9 12 12 9 6 7 7 6 6 6 6 6 6 6 7 7 7 8 9 10 10 10 9 8 8
9 9 10 10 10 9 9 10 9 8 6 6 5 6 7 7 6 5 4 3 3 5 5 4 3 3 3 2 3 5 7 8 9 10 10 10 10 10 11 11 11 12 13 12 12 13 12 12 12 12 11 11 10 9 7 8 10 9 7 7 9 11 10 8 7 8 7 5 5 5 5 5 4 4 4 4 5 8 10 11 11 10 8 6 5
8 6 6 8 8 9 8 8 7 6 7 7 7 7 8 8 7 7 6 6 5 4 4 4 4 4 4 4 5 7 8 9 10 10 10 10 10 11 10 9 10 10 11 11 12 11 10 9 11 12 11 11 12 13 13 12 11 11 11 10 9 9 9 8 10 10 9 8 8 7 6 4 3 3 2 4 6 8 10 11 10 9 9 7 6
8 7 4 4 6 6 6 4 3 2 5 7 7 7 8 8 8 7 6 6 5 5 4 4 4 4 5 5 6 7 8 9 9 9 10 10 10 10 9 8 8 7 6 7 9 10 9 8 9 11 12 11 11 12 12 12 11 11 11 11 9 9 9 10 10 10 10 10 9 7 6 6 6 6 7 8 9 10 11 11 11 10 10 9 8
8 7 6 5 5 5 5 4 3 3 5 8 8 9 9 9 8 7 6 6 5 4 4 4 4 4 4 5 6 7 7 7 8 8 9 9 9 9 8 9 9 7 6 8 9 10 10 9 8 8 10 11 11 10 9 10 11 11 11 11 10 10 10 11 10 9 9 10 10 9 9 9 9 10 11 12 13 15 15 15 16 16 14 11 10
5 5 3 3 4 4 4 5 4 4 4 5 7 8 8 8 9 8 7 6 6 5 4 4 3 3 3 4 4 5 5 5 6 7 8 9 9 9 9 9 9 8 8 8 9 10 10 10 9 9 9 9 9 9 8 8 9 9 9 9 10 10 9 8 8 7 9 10 11 11 11 10 11 12 11 11 12 13 13 14 16 17 16 13 11
3 4 3 3 2 3 4 5 3 3 3 2 2 3 3 3 7 9 8 8 8 7 7 5 4 3 2 2 2 3 3 4 5 6 7 7 8 9 10 10 10 9 8 8 8 8 8 8 9 9 8 8 8 9 10 9 8 7 6 6 7 8 9 9 9 9 9 10 11 12 12 12 14 15 13 11 11 12 11 10 10 12 14 16 17
3 5 7 7 4 2 2 1 0 0 2 2 1 1 2 4 4 5 6 7 7 8 8 7 6 5 3 2 1 1 1 2 3 5 6 6 6 7 10 10 8 8 8 8 7 6 6 6 5 5 4 5 6 7 8 8 8 8 9 10 10 11 12 13 13 13 10 8 9 13 14 14 16 17 16 14 13 13 13 13 13 14 17 19 22
1 5 6 3 2 1 1 3 5 4 3 2 1 1 4 5 4 4 5 5 4 5 7 8 9 8 8 6 3 2 2 3 4 5 6 6 5 5 6 6 6 7 8 9 9 8 7 6 5 6 7 8 6 5 8 12 15 16 17 15 13 12 14 14 15 16 13 9 8 12 14 14 16 17 16 15 15 16 16 16 17 18 19 20 23
3 1 2 2 5 3 0 1 2 3 4 4 3 2 3 4 5 6 6 6 5 6 8 9 10 11 11 8 5 3 3 4 5 6 6 7 7 6 5 3 3 4 5 7 8 9 10 10 11 13 14 14 12 9 11 17 21 20 19 18 15 13 14 14 14 16 17 14 12 12 11 11 12 14 13 13 14 14 15 16 18 19 19 20 21
2 3 4 5 6 6 4 2 1 5 7 5 3 3 4 5 5 6 6 7 7 7 9 11 13 13 11 8 5 4 5 4 4 5 6 6 5 3 2 2 2 2 3 5 4 4 7 11 12 11 8 9 10 10 10 14 17 15 14 16 16 15 15 14 12 12 14 14 12 12 10 9 10 12 12 12 13 13 13 15 17 18 17 17 18
2 4 6 7 7 7 7 6 5 6 6 5 4 5 6 6 6 6 7 7 7 6 7 10 11 10 8 6 4 5 6 4 4 7 7 4 2 3 2 1 2 3 4 6 5 3 5 8 10 9 9 9 10 10 9 9 12 13 11 11 10 9 11 14 12 10 11 12 13 14 14 12 12 14 15 15 15 16 16 16 16 15 15 16 17
2 4 5 6 6 5 4 4 5 5 4 5 6 6 6 6 6 6 5 6 8 7 6 8 8 6 5 5 5 5 6 5 5 8 8 5 6 6 4 2 2 1 2 3 2 1 2 3 6 10 12 11 10 10 9 7 10 13 13 12 10 8 10 14 14 14 14 16 17 17 17 16 15 16 14 13 13 14 15 16 15 13 13 14 15
1 2 4 5 6 4 2 1 2 4 5 6 6 6 6 7 7 6 5 6 8 7 7 10 11 9 7 7 6 7 7 6 5 6 7 6 5 4 3 3 4 3 1 1 2 2 3 3 4 8 11 10 10 11 10 8 8 9 11 13 12 10 10 11 12 13 15 16 16 17 17 16 17 17 15 13 12 11 11 13 14 13 12 13 14
1 1 2 3 4 3 2 2 2 2 3 5 6 6 5 5 5 5 5 7 8 8 7 9 11 10 9 10 10 10 8 6 5 5 6 5 5 4 2 2 3 3 2 4 4 2 1 1 3 6 9 9 9 9 8 8 8 9 10 12 12 11 10 10 11 13 16 17 17 16 17 17 17 17 17 15 14 13 11 10 10 12 13 12 13
0 0 1 1 2 2 2 3 3 2 1 3 4 5 4 4 5 6 6 6 7 7 7 7 8 10 11 13 12 9 6 3 4 5 5 4 4 4 2 3 3 1 1 3 5 4 2 1 3 5 7 8 9 8 7 7 8 9 10 12 12 11 10 10 12 15 17 18 18 18 18 18 18 17 16 15 15 15 13 11 10 12 14 13 12
1 1 1 1 1 1 2 3 4 3 3 4 6 5 4 4 5 6 7 7 7 7 7 6 7 8 10 11 10 7 4 3 4 5 4 4 4 3 2 4 6 4 2 3 5 5 3 2 3 4 5 7 8 9 8 8 9 9 10 10 10 9 9 10 12 14 15 16 18 18 18 18 18 16 15 14 15 15 14 12 12 13 13 13 13
2 4 3 2 2 2 2 2 2 1 2 5 6 5 4 3 4 6 6 5 4 4 5 7 7 7 7 8 8 6 4 3 3 2 1 2 2 2 3 4 4 3 3 5 6 6 5 4 3 4 5 6 8 10 10 10 11 12 13 13 12 13 14 15 16 17 19 19 20 21 20 19 18 17 15 14 14 14 13 13 13 13 12 13 13
3 2 2 2 3 2 1 1 2 2 3 5 5 5 4 4 5 7 7 6 6 6 6 7 9 8 6 6 6 5 5 4 3 3 2 2 2 3 5 5 3 2 4 5 5 4 5 6 6 7 7 8 10 13 13 13 14 15 17 17 16 16 17 18 20 22 23 23 24 26 24 21 17 15 14 13 13 13 13 13 12 12 12 13 13
1 1 1 3 3 2 1 4 4 3 4 4 4 4 4 5 6 6 6 8 10 8 5 5 7 8 7 7 6 5 5 5 3 3 4 3 2 3 4 3 2 3 6 6 6 7 8 10 10 11 11 11 12 13 14 15 17 19 19 18 17 18 19 20 21 23 23 24 25 26 24 19 15 13 13 13 12 12 12 12 12 12 12 13 12
1 3 3 4 2 3 3 4 4 3 3 4 4 4 5 5 5 5 5 7 8 6 4 4 5 5 6 6 5 5 5 5 4 3 3 3 4 5 4 3 3 5 6 5 5 8 10 11 13 14 14 13 13 13 13 14 18 20 20 20 20 20 20 20 21 23 24 24 24 23 18 14 12 12 12 12 12 12 12 12 12 12 13 12 12
2 3 3 2 1 2 4 4 4 4 3 3 4 4 4 5 4 5 6 6 5 5 5 5 5 4 5 6 6 5 4 4 4 4 4 5 6 6 6 6 6 7 7 6 6 7 9 11 12 12 11 11 11 12 13 15 18 20 21 22 22 22 22 22 23 23 22 21 21 18 14 11 11 12 12 12 12 12 12 12 12 12 13 13 12
3 3 4 4 3 3 4 4 4 4 4 3 4 5 5 5 5 5 6 6 5 5 6 6 5 5 5 5 5 4 4 5 5 5 7 8 8 8 8 7 7 8 9 9 9 10 11 12 12 12 12 11 11 12 13 16 18 19 20 21 22 23 23 23 22 20 18 18 19 17 12 9 9 11 10 10 11 11 11 12 12 11 12 13 13
4 3 3 4 4 4 4 4 3 3 3 3 4 4 4 4 5 5 5 5 5 5 5 6 6 6 5 6 6 5 5 5 5 5 6 8 8 8 7 8 8 9 10 10 9 10 11 12 13 13 13 12 11 11 14 17 18 19 20 20 20 19 19 19 19 18 19 19 18 14 9 8 9 10 10 10 11 11 11 11 11 11 12 13 13
Wind_Direction
194 197 199 204 206 207 213 216 213 210 212 217 219 222 224 225 227 229 228 227 228 235 237 230 227 234 248 251 237 229 237 244 244 247 254 256 256 256 249 251 258 260 263 268 268 266 269 270 270 271 270 268 268 269 269 271 276 276 275 277 276 272 274 278 284 290 295 294 292 293 293 293 291 287 289 289 287 288 292 298 301 301 304 308 309
189 192 195 200 207 209 212 220 222 218 217 220 222 224 227 229 230 234 236 232 228 236 240 234 230 230 237 246 244 235 237 240 241 248 256 257 258 260 257 256 257 255 257 264 267 268 268 267 267 269 272 274 276 277 277 279 280 278 279 279 276 275 279 283 286 291 296 300 302 301 300 300 298 294 288 287 288 285 288 296 297 294 300 308 309
191 191 193 196 205 208 207 213 221 222 222 227 229 230 233 234 233 235 239 238 240 245 243 238 239 236 235 240 241 240 244 245 245 248 251 255 260 262 263 264 262 257 258 266 271 270 271 271 268 269 273 276 277 277 278 280 278 274 277 282 283 286 286 281 280 287 294 298 298 294 296 302 299 295 292 288 283 279 284 292 288 283 288 294 298
200 198 198 200 209 211 206 207 214 215 216 221 225 227 230 235 237 237 238 238 242 247 245 245 249 248 246 245 240 238 242 247 252 251 249 254 257 257 261 265 266 266 266 269 272 271 270 272 273 274 273 272 274 277 279 279 279 278 282 286 287 287 281 273 276 285 287 287 286 286 291 295 294 292 291 286 280 279 282 281 273 273 281 286 289
200 205 205 201 205 210 209 208 216 220 218 217 219 219 219 224 232 237 240 241 241 243 243 246 251 250 253 257 251 246 247 247 251 253 251 252 250 251 263 270 270 272 274 273 274 273 272 275 279 279 273 270 274 279 278 278 282 284 283 282 283 284 283 281 284 289 289 288 289 289 287 289 294 297 294 290 290 290 290 287 280 277 279 281 286
187 202 209 203 202 209 212 211 219 226 228 230 229 225 220 219 220 224 231 235 237 242 243 243 246 247 250 257 256 254 255 252 250 250 250 252 254 257 266 270 266 266 269 270 273 274 273 274 275 274 273 275 279 278 276 278 284 286 285 285 286 287 291 293 289 288 291 292 290 289 288 290 297 301 299 299 300 297 294 293 288 285 285 284 287
189 197 204 204 206 214 219 220 225 230 236 240 239 233 228 225 220 218 224 228 228 235 244 245 247 249 251 257 257 252 250 247 244 248 252 255 258 262 267 268 269 270 269 267 268 271 272 273 273 275 278 282 284 278 272 274 277 276 278 285 290 291 295 295 290 287 288 288 286 288 294 298 300 301 299 299 299 297 298 299 296 297 301 299 297
209 210 207 206 210 214 219 227 233 235 239 243 245 242 236 234 229 224 227 230 226 225 234 239 241 246 252 255 253 249 251 252 249 249 254 256 258 262 266 268 271 273 271 267 265 266 270 272 276 280 281 279 281 280 277 278 277 273 276 282 286 290 293 293 293 291 289 288 289 291 294 295 294 296 296 295 295 296 299 299 299 303 306 305 304
210 212 211 213 218 222 229 237 240 239 241 244 247 248 244 241 240 235 234 237 233 228 229 231 230 233 238 240 241 246 253 258 258 255 252 254 260 265 266 266 269 271 270 269 271 271 270 273 280 289 289 286 287 289 287 286 283 279 279 280 281 285 288 289 290 291 290 289 290 292 293 292 292 292 291 292 297 302 303 299 298 303 305 304 304
209 213 216 221 226 231 239 245 244 241 242 244 248 251 250 246 245 243 242 244 240 233 232 234 231 230 234 236 239 245 250 253 258 260 254 253 259 264 264 265 267 268 269 273 276 274 273 277 285 289 294 298 298 292 287 286 284 281 282 282 284 286 288 290 291 290 290 289 290 292 292 291 292 290 289 292 296 299 300 297 296 300 302 302 304
216 225 233 236 235 236 241 245 245 243 242 244 250 253 251 249 248 248 249 251 249 241 240 241 236 233 238 241 242 248 254 254 256 259 258 257 259 261 263 266 266 265 267 271 274 273 273 276 278 277 284 292 291 287 286 285 281 279 278 277 279 282 284 287 289 290 291 292 292 293 293 293 294 292 291 292 291 289 290 291 290 293 298 299 301
219 233 246 248 242 240 245 247 248 248 246 246 250 252 251 248 247 249 252 253 253 249 248 245 238 236 242 246 247 251 257 260 257 258 260 259 258 258 261 267 270 271 271 271 274 278 279 276 269 269 278 283 283 281 281 280 278 278 277 274 275 278 280 281 284 287 289 291 291 292 293 296 297 296 295 292 290 288 287 285 284 287 292 293 294
223 232 244 249 245 243 249 252 250 251 254 253 251 251 251 247 245 249 252 251 249 247 247 244 238 238 243 246 248 250 254 257 258 259 259 258 258 259 261 265 271 275 276 277 279 279 278 272 269 273 276 279 282 278 273 272 276 281 282 281 280 282 283 283 284 286 287 288 290 290 293 297 297 297 298 296 291 289 286 283 283 286 288 288 287
221 226 238 248 251 248 247 248 248 249 252 255 255 255 256 254 251 249 248 246 245 243 242 239 234 235 242 246 247 248 251 255 258 260 261 263 264 262 261 262 267 272 277 280 279 276 274 273 272 274 276 277 278 274 267 267 274 278 278 278 280 282 283 285 287 288 288 288 288 289 292 295 295 295 297 295 290 288 287 285 285 285 284 282 280
225 230 237 244 250 252 250 249 252 254 254 258 261 261 260 257 251 247 246 247 248 245 239 233 228 229 236 243 246 250 255 258 260 260 262 265 265 263 262 263 265 268 272 275 273 270 271 275 272 272 274 275 276 276 275 275 278 279 279 279 281 281 281 284 288 290 289 287 286 287 289 291 292 292 293 291 288 286 286 285 283 282 280 277 276
225 229 233 234 241 253 255 255 256 257 259 262 261 259 256 253 249 246 245 245 244 243 238 230 224 223 229 245 253 256 259 261 262 261 263 265 266 264 262 262 263 264 264 273 281 277 274 276 277 278 279 276 277 283 287 288 286 285 286 287 287 287 286 287 287 286 285 283 281 282 283 284 285 285 286 288 288 288 287 284 282 280 277 274 274
216 219 216 212 224 235 238 238 237 240 247 251 250 249 248 250 254 251 243 237 235 238 238 231 225 227 238 250 257 257 255 257 260 261 263 264 265 263 260 261 265 267 266 271 283 295 295 286 280 280 280 279 281 285 288 290 291 291 293 292 291 291 290 286 282 278 275 275 277 279 280 282 283 283 284 286 286 286 285 282 280 279 277 274 274
186 187 181 187 206 216 214 199 185 205 222 225 233 239 233 230 239 241 229 225 226 230 232 228 222 227 235 241 248 254 257 257 260 264 268 270 270 269 270 271 270 271 272 269 267 271 280 278 275 277 278 280 286 290 290 292 295 296 297 295 294 293 289 285 281 277 274 274 275 276 277 279 282 283 284 284 284 286 284 282 281 280 275 273 272
111 121 126 127 120 117 125 128 126 133 148 173 216 236 209 196 206 215 214 214 216 222 227 222 213 221 235 244 252 263 273 276 279 289 296 298 300 293 290 287 276 269 268 267 266 268 272 274 277 281 286 291 295 297 299 304 306 307 306 304 303 300 296 293 290 286 284 282 280 279 279 281 283 283 282 283 285 287 286 282 279 273 270 271 269
77 79 82 83 84 87 94 99 100 101 105 108 109 116 127 136 163 196 199 180 174 192 208 205 197 217 241 251 249 249 262 283 300 308 304 305 311 310 308 300 279 267 261 263 268 272 272 275 280 285 294 304 307 307 313 316 315 315 316 315 313 309 306 306 303 299 298 296 293 288 285 283 284 283 281 281 283 282 279 275 267 261 262 267 264
80 83 86 86 83 81 81 84 87 92 100 103 101 102 106 109 120 139 142 130 129 140 151 153 156 185 217 222 218 226 247 260 263 267 272 273 272 276 282 274 263 262 262 263 267 260 253 263 283 300 311 321 324 324 323 321 320 320 320 321 321 319 318 318 316 316 319 319 313 305 299 297 296 292 287 285 285 283 282 283 281 277 277 277 267
70 71 73 75 76 77 77 81 86 89 94 99 98 95 95 97 100 104 113 122 129 133 132 129 130 145 221 260 264 269 277 278 274 269 270 273 270 270 280 268 263 280 286 281 281 279 275 293 321 338 343 345 346 344 342 342 344 343 342 339 336 337 338 338 342 346 344 336 331 330 330 331 329 317 301 293 293 293 294 298 300 294 290 290 289
76 71 66 63 63 63 63 67 70 71 73 78 85 87 88 89 87 85 89 92 95 103 106 99 92 88 81 66 41 22 353 336 352 3 341 334 346 350 349 347 342 341 337 330 327 330 339 349 358 10 22 28 30 34 38 35 31 26 20 11 3 0 359 357 0 1 352 343 344 352 360 2 358 355 345 329 325 323 317 314 311 299 291 292 295
86 82 78 76 73 69 67 63 56 52 53 56 61 64 65 70 73 68 69 79 87 90 90 88 86 81 73 68 62 50 38 24 11 6 1 352 344 341 340 339 341 347 348 344 351 6 17 27 39 55 64 62 61 63 60 51 41 34 27 22 17 12 6 1 0 359 354 353 355 359 5 7 5 4 4 2 357 349 344 342 335 323 317 312 306
86 82 81 81 78 75 77 74 64 58 55 53 54 51 48 54 62 58 50 51 60 70 73 68 64 60 51 40 35 31 29 24 20 16 11 2 350 344 345 350 4 23 39 49 58 61 60 71 81 81 76 74 73 70 59 47 42 39 31 20 11 5 359 357 0 3 7 8 6 7 14 19 18 15 12 11 8 2 0 358 349 347 360 360 349
74 75 78 82 84 84 83 78 74 74 72 66 65 63 56 60 72 76 63 53 55 63 67 59 51 47 43 35 28 30 36 38 39 42 41 41 43 40 42 50 53 54 60 65 67 66 69 81 84 73 65 68 72 71 64 59 61 61 43 20 10 5 3 4 11 17 24 23 17 20 30 30 25 24 21 17 18 24 27 19 7 10 23 17 7
59 58 59 62 67 75 82 87 92 98 97 91 89 90 90 100 115 119 112 100 94 91 86 83 80 74 71 62 33 30 43 48 47 47 49 50 52 52 52 55 55 56 61 66 67 65 62 63 65 66 66 67 68 70 73 74 74 64 38 12 6 11 13 11 9 16 26 27 21 23 27 19 14 20 19 15 22 32 36 30 23 19 15 7 4
67 64 60 53 49 52 55 61 80 100 105 98 85 72 73 95 127 141 149 158 139 104 93 104 121 121 110 102 52 39 52 56 52 51 50 49 49 50 53 57 60 62 64 66 67 66 60 52 49 56 61 60 61 64 60 37 25 25 20 359 354 5 11 9 5 11 19 24 19 13 12 10 15 24 21 19 28 35 33 25 18 15 15 8 358
84 82 81 74 65 58 51 46 53 66 76 80 71 57 62 75 90 110 126 121 102 99 92 87 110 125 118 97 74 64 61 58 55 52 50 49 49 48 51 60 69 72 70 69 68 66 60 53 49 49 49 48 44 34 31 31 23 15 12 1 354 358 2 5 13 16 14 15 14 13 21 32 37 37 31 22 20 15 8 2 359 1 5 359 343
65 56 79 94 86 77 72 67 60 49 49 60 66 62 67 76 78 79 86 93 99 100 84 60 62 76 80 75 71 67 61 58 57 54 52 51 50 49 49 57 71 77 75 73 71 68 67 66 61 51 44 46 46 38 36 39 36 25 18 11 8 11 14 20 30 30 25 25 25 26 37 43 32 18 353 346 355 353 345 341 339 336 335 333 329
61 36 52 111 109 91 86 98 103 39 33 51 66 70 66 64 69 74 75 80 87 87 80 74 74 73 72 72 70 67 65 63 60 57 55 52 50 50 49 53 64 73 78 76 73 68 63 66 69 62 49 41 43 42 39 37 33 25 19 11 8 16 24 27 29 27 23 23 21 16 13 3 349 343 338 335 338 340 335 332 329 327 325 320 317
89 62 45 52 65 58 48 59 64 35 30 37 43 49 48 38 36 45 51 53 59 62 60 64 67 67 68 72 73 72 68 63 60 58 56 52 49 48 48 51 57 60 61 64 66 63 56 49 52 60 54 44 41 40 36 35 33 28 22 11 0 2 11 17 18 12 8 11 7 357 354 349 340 342 347 343 340 341 342 343 340 334 328 319 311
104 99 94 82 83 73 51 54 61 50 43 30 17 25 31 14 360 7 21 30 32 30 31 36 44 53 61 70 75 74 67 59 55 54 50 46 44 44 44 49 50 48 51 63 67 63 56 47 43 43 41 39 39 31 21 22 26 23 20 15 6 356 351 354 357 350 346 348 342 332 333 331 322 325 334 334 331 334 339 347 347 338 329 324 320
72 85 55 30 71 92 65 52 47 35 34 25 1 26 29 332 328 341 355 9 11 6 4 9 12 19 31 49 58 64 62 53 43 38 37 36 40 46 47 43 34 28 35 51 61 62 58 53 49 47 40 35 36 31 21 18 16 4 348 345 344 330 317 317 323 323 327 333 325 314 310 309 305 306 308 308 311 314 311 310 313 308 305 307 309
22 14 7 11 28 60 69 70 193 5 21 30 75 50 302 294 305 324 335 343 345 343 344 348 351 353 355 357 1 12 25 23 17 18 19 20 37 60 63 55 40 26 27 38 47 54 60 55 48 50 46 37 39 40 30 19 11 350 333 337 342 334 325 327 331 329 330 334 322 311 306 302 299 297 295 293 294 295 295 294 290 287 290 294 295
353 354 356 22 76 61 295 252 238 233 241 252 251 301 309 303 291 282 288 296 303 311 315 316 320 326 326 320 309 297 316 354 10 19 19 20 39 65 66 63 56 38 32 36 34 21 12 8 7 12 9 358 0 25 21 7 360 351 346 350 352 341 337 345 350 348 349 351 337 328 329 329 325 320 317 312 305 298 296 293 287 284 285 289 292
194 10 358 169 167 162 138 314 301 307 303 291 281 282 287 288 288 290 291 293 294 295 297 300 305 309 308 303 296 292 315 351 21 31 31 40 55 53 37 42 75 65 46 46 42 24 6 359 8 17 11 355 348 2 11 6 1 354 349 352 355 349 348 356 358 353 350 348 342 338 338 337 334 332 330 328 326 325 320 309 299 297 297 295 295
203 243 287 270 237 234 233 211 282 322 325 321 312 308 293 283 289 296 296 298 299 293 289 295 300 300 298 295 292 301 314 335 12 16 17 35 54 54 33 24 28 22 22 29 40 31 11 8 14 19 8 348 344 347 352 0 4 0 355 357 358 354 351 351 352 349 346 340 330 324 319 312 308 307 305 305 311 317 316 310 311 318 322 318 315
325 282 290 299 291 274 256 239 247 278 297 295 292 301 302 298 298 295 290 294 300 296 294 300 297 289 283 281 284 298 301 292 313 335 341 341 271 248 226 58 1 347 11 17 21 32 20 12 8 351 327 320 327 328 327 344 355 354 353 355 355 351 345 339 332 325 321 313 305 303 305 304 302 301 305 312 318 319 316 316 321 329 330 325 323
325 314 311 322 333 320 278 253 250 253 263 276 278 282 291 296 294 288 292 310 317 318 325 326 318 308 307 308 309 313 302 281 289 316 319 300 270 261 238 215 260 285 47 16 341 262 273 331 2 351 332 322 327 336 339 339 335 334 336 336 338 344 344 336 328 318 310 303 299 296 296 297 299 303 307 316 325 329 329 329 329 328 324 321 321
28 353 324 328 348 357 348 303 259 246 260 280 277 272 286 299 293 283 297 319 320 320 329 328 322 324 332 331 326 320 307 285 272 294 307 305 288 261 205 211 254 243 187 263 275 243 254 283 341 348 331 317 314 321 326 325 320 325 336 338 336 334 333 333 331 320 306 299 297 298 299 300 304 308 309 309 314 321 322 321 322 323 324 326 326
334 15 323 334 353 351 328 322 316 267 269 287 280 270 282 310 312 307 312 315 311 311 315 314 312 317 323 323 323 320 307 282 267 283 296 297 290 276 238 259 282 269 240 256 257 238 234 303 330 336 336 332 318 306 309 316 314 317 328 330 325 320 319 318 309 295 288 289 294 299 303 306 308 311 312 311 312 311 306 309 324 330 325 318 313
86 105 325 311 330 339 317 310 313 300 282 306 298 277 274 298 310 310 313 312 308 308 306 300 304 317 323 320 318 318 310 283 278 287 283 273 279 289 289 270 258 204 66 313 280 258 244 304 309 317 334 341 332 322 322 321 316 322 331 328 321 315 310 304 295 289 288 294 299 302 305 308 310 314 319 320 320 316 311 314 328 330 322 314 312
104 309 295 274 276 312 334 323 311 283 267 297 308 300 288 292 297 298 299 299 301 309 315 309 303 313 326 327 325 326 325 296 281 277 264 253 259 265 269 270 261 236 224 291 293 281 272 281 297 306 315 321 319 318 313 303 303 312 316 311 308 305 296 290 295 301 304 308 312 314 317 318 317 318 320 323 324 325 323 323 326 324 321 321 322
325 283 264 260 274 278 289 309 311 276 276 306 319 313 289 278 306 320 320 311 294 299 323 334 328 320 324 331 332 331 327 312 300 294 274 271 281 274 257 267 281 277 263 279 296 305 304 302 299 290 283 282 285 288 290 292 294 294 291 288 289 291 290 290 297 304 309 312 315 317 320 322 321 321 322 322 323 324 324 323 323 323 323 324 324
338 278 253 286 276 243 247 313 304 293 295 299 308 313 298 293 317 333 336 329 314 295 291 315 333 336 335 335 338 341 344 346 349 343 316 290 268 252 243 236 234 273 278 276 283 292 286 279 271 263 261 269 279 286 292 297 294 289 288 290 289 288 290 294 298 301 305 308 311 313 315 317 316 316 319 321 320 321 322 323 323 322 321 321 319
35 178 268 303 277 222 332 326 308 303 304 291 286 305 313 305 311 324 326 324 327 327 310 305 325 337 339 335 338 349 352 347 350 352 336 306 253 255 261 246 233 276 280 283 292 291 281 275 275 275 274 279 287 295 303 306 300 294 293 294 293 291 293 296 298 301 305 307 309 312 314 314 313 314 317 320 320 322 322 322 322 320 319 319 319
314 235 273 311 289 244 273 297 292 288 298 291 284 297 311 309 311 322 326 325 330 340 344 333 333 344 347 338 336 349 353 344 343 346 328 288 263 266 263 231 225 263 280 290 305 305 300 296 294 292 289 287 290 299 306 304 299 296 298 299 299 299 300 301 302 305 306 308 311 313 313 311 313 317 318 320 323 323 322 320 319 319 319 318 316
269 245 263 297 300 255 261 277 285 284 289 298 292 289 301 313 314 314 318 322 325 331 337 335 333 339 347 347 347 350 350 351 0 355 323 294 283 282 276 265 265 278 282 276 270 281 296 302 300 295 292 292 297 303 302 295 292 295 299 301 302 304 304 303 305 307 309 315 322 324 319 315 318 322 323 324 323 321 319 319 319 319 320 319 317
246 253 244 242 256 260 243 247 261 259 257 279 291 287 293 304 300 295 307 320 321 317 321 328 331 333 336 340 348 354 350 345 352 352 337 323 312 298 291 295 299 296 291 287 280 279 289 297 298 293 290 293 299 302 297 290 289 294 298 301 304 306 306 308 312 316 320 326 330 331 331 333 333 331 331 330 326 323 321 320 318 316 317 318 317
245 253 230 231 263 270 244 237 265 268 250 259 273 278 283 286 278 276 295 313 312 302 300 313 328 332 321 311 315 329 338 336 334 334 332 329 324 317 311 311 308 302 302 307 305 296 293 296 299 298 296 296 298 297 291 287 288 292 297 303 308 311 313 317 320 320 321 323 326 330 344 357 350 340 336 335 333 329 325 320 317 317 316 315 313